Forum : ARKEMA
Date Sujet Auteur Dernier
07/09/16 16:07 ARKEMA - Un top sur 81 pourrrait déclencher une conso vers 74 MR225 MR225 3 0
06/09/16 17:34 ARKEMA - direct 100 euros pi.arnau Blanko 46 3
05/09/16 09:07 Voir ALGBE cajeanbe cajeanbe 2 1
03/08/16 09:22 ça c'est bon ! didge64 didge64 0 2
02/08/16 18:43 agenda financier didge64 alexpedo 2 0
02/08/16 16:11 Question : M1218608 JEFTITRE 10 0
20/07/16 13:52 ARKEMA - 130 euros en 2013 pi.arnau M8317231 32 1
20/07/16 13:18 Kepler 80 ¤ M9321184 M8317231 1 0
11/07/16 11:54 Barclays vise 84 roncevau M8317231 2 0
01/07/16 14:09 Ca va lacher...retour 65... M2941863 M8317231 2 1
22/06/16 18:26 7 juin 2016 Assemblée Générale des joelle46 gerardsb 3 0
01/06/16 14:13 Les conseilleurs barclays et Cie dugan dugan 0 0
26/05/16 11:54 Direction 80¤ meduz69 M8317231 21 2
18/05/16 11:03 maj du plan arkema tradego tradego 0 1
17/05/16 10:41 Cessions: M8317231 aremoric 1 0
11/05/16 07:12 Résultats du 1er trimestre 2016 l.schmi3 l.schmi3 0 0
28/04/16 17:15 attention, est ce un signe ? seri.inv M8317231 4 2
22/04/16 08:52 11 mai 2016 didge64 didge64 0 1
19/04/16 19:00 Augmentation de capital robyby didge64 6 0
19/04/16 15:02 va à 35 amha .... M8317231 lamyj-pi 2 0
15/04/16 13:45 Belle hausse depuis meduz69 M1218608 19 1
14/04/16 13:58 cession cubavara didge64 1 0
12/04/16 14:03 Depuis les résultats meduz69 meduz69 0 0
05/04/16 13:48 Renseignement sur les fluctuations SVP jeanbonc jeanbonc 0 0
05/04/16 12:12 Pourquoi encore à la baisse ? jeanbonc meduz69 1 0
01/04/16 10:07 Bnj, je vous conseil de looker trigano nasowone nasowone 1 0
23/03/16 13:59 on y est: M8317231 M8317231 2 0
23/03/16 13:36 Ake prochain objectif meduz69 meduz69 3 0
21/03/16 16:39 M8317231 didge64 bryau 2 0
18/03/16 16:18 M8317231 didge64 meduz69 1 0
17/03/16 15:57 Morgan Stanley > AKE meduz69 meduz69 0 2
17/03/16 11:11 le vent tourne, je vends! chichitu M8317231 0 0
17/03/16 11:08 Pression baissiere cjanson M8317231 0 1
15/03/16 16:12 Article Le Henaff meduz69 meduz69 0 0
08/03/16 14:59 AK, prix de souscription à 42,16 euros didge64 feff 11 2
07/03/16 12:19 RETOUR AU BERCAIL ! M3569582 M3569582 0 0
03/03/16 17:04 ARKEMA - sous 45 dans un premier temps M8317231 M8317231 17 0
02/03/16 11:19 augmentation capital salariés /42.2¤ si mullergu M8317231 2 0
01/03/16 09:26 Ouverture théorique 46.61 M9321184 M8317231 3 0
29/02/16 17:40 hum ! M9321184 M9321184 0 0

Les sujets :

Sujet sans réponse.
Sujet principal faisant l'objet d'au moins une réponse.
Sujet comportant une analyse technique commentée.

Les autres icônes :

BoursoStar Expert
BoursoStar 3 étoiles
BoursoStar 2 étoiles
BoursoStar 1 étoiles
BoursoStar